This is the latest recevied weather packets stored in our database for station/object K7CTM. If no packets are shown the sender has not sent any weather packets the latest 1 day(s).
| Time | Temp. | Humidity | Pressure | Rain* | Wind** | Luminosity | Snow |
|---|---|---|---|---|---|---|---|
| 1778035442 | 5.56° C | 40% | 1028.1 hPa | 0 mm | 0.89 m/s, 271° | 1 W/m² | - |
| 1778035138 | 6.11° C | 40% | 1028.2 hPa | 0 mm | 1.34 m/s, 319° | 1 W/m² | - |
| 1778034835 | 6.11° C | 40% | 1027.8 hPa | 0 mm | 0.89 m/s, 337° | 1 W/m² | - |
| 1778034532 | 6.11° C | 40% | 1027.8 hPa | 0 mm | 0.89 m/s, 355° | 1 W/m² | - |
| 1778034230 | 6.11° C | 39% | 1027.7 hPa | 0 mm | 0.89 m/s, 334° | 2 W/m² | - |
| 1778033927 | 6.11° C | 39% | 1027.7 hPa | 0 mm | 0.89 m/s, 346° | 3 W/m² | - |
| 1778033624 | 6.11° C | 38% | 1027.7 hPa | 0 mm | 2.24 m/s, 336° | 6 W/m² | - |
| 1778033321 | 6.11° C | 38% | 1027.7 hPa | 0 mm | 1.34 m/s, 9° | 7 W/m² | - |
| 1778033019 | 6.67° C | 38% | 1027.5 hPa | 0 mm | 0.89 m/s, 313° | 9 W/m² | - |
| 1778032716 | 6.67° C | 37% | 1027.4 hPa | 0 mm | 2.68 m/s, 340° | 12 W/m² | - |
| 1778032414 | 6.67° C | 37% | 1027.3 hPa | 0 mm | 2.68 m/s, 346° | 19 W/m² | - |
| 1778032110 | 6.67° C | 38% | 1027.3 hPa | 0 mm | 1.79 m/s, 325° | 26 W/m² | - |
| 1778031807 | 6.67° C | 37% | 1027.3 hPa | 0 mm | 1.79 m/s, 291° | 31 W/m² | - |
| 1778031503 | 6.67° C | 37% | 1027.3 hPa | 0 mm | 1.79 m/s, 324° | 34 W/m² | - |
| 1778031200 | 7.22° C | 37% | 1027.2 hPa | 0 mm | 1.34 m/s, 268° | 35 W/m² | - |
| 1778030897 | 7.22° C | 36% | 1027.1 hPa | 0 mm | 0.89 m/s, 248° | 37 W/m² | - |
| 1778030595 | 7.22° C | 36% | 1027.2 hPa | 0 mm | 0.89 m/s, 252° | 43 W/m² | - |
| 1778030292 | 7.22° C | 36% | 1027.2 hPa | 0 mm | 0.89 m/s, 247° | 52 W/m² | - |
| 1778029988 | 7.22° C | 36% | 1027 hPa | 0 mm | 0.45 m/s, 264° | 65 W/m² | - |
| 1778029686 | 7.22° C | 37% | 1027 hPa | 0 mm | 1.34 m/s, 253° | 55 W/m² | - |
| 1778029384 | 7.22° C | 37% | 1026.9 hPa | 0 mm | 2.24 m/s, 319° | 66 W/m² | - |
| 1778029080 | 7.22° C | 36% | 1026.9 hPa | 0 mm | 1.34 m/s, 323° | 84 W/m² | - |
| 1778028777 | 7.22° C | 36% | 1026.8 hPa | 0 mm | 2.24 m/s, 291° | 80 W/m² | - |
| 1778028473 | 7.22° C | 36% | 1026.9 hPa | 0 mm | 3.58 m/s, 6° | 82 W/m² | - |
| 1778028171 | 7.22° C | 36% | 1026.9 hPa | 0 mm | 3.13 m/s, 319° | 94 W/m² | - |
* Rain latest hour (hover to see other rain measurements)
** Current wind speed in m/s (hover to see current wind gust speed)